Content
SEND FEEDBACK

Daily
Averages
Monthly
Summary
Madagascar

TOLANARO, MADAGASCAR


Home > Africa > Madagascar
Elevation: 30 feet     Latitude: 25 02S     Longitude: 046 57E

WEATHER
 
SELECT A DAY
Number of Records: 56,065;   Date Range: 1/17/97 - 12/18/14
 
SHARE

PRINT THIS DATA

[ ← Previous Day ]
WEATHER ALMANAC - JANUARY 31, 2013
[ Next Day → ]
[ °C ]   °F
Weather ElementAverageHighLow
Temperature77.1 °F86 °F (2:00 pm) (8:00 am)
Dewpoint73.1 °F78.8 °F (9:00 am) (7:00 pm)
Humidity86.8 %94 % (2:00 am)67 % (3:00 pm)
Barometer29.82 in29.84 in (9:00 am)29.80 in (1:00 pm)
Wind Speed11 mph18.4 mph (2:00 pm)
Weather ElementAverage
Visibility7 mi
Wind DirectionE (93.3 °)

Weather ElementTotal
Precipitation---
Heating Degree Days22 (Base 65)
Averaged from 27 records on January 31, 2013
WEATHER CONDITIONS BREAKOUT
WIND DIRECTION BREAKOUT
WEATHER BY HOUR - JANUARY 31, 2013
[ °C ]   °F
Local TimeTemperatureDewpointHumidityBarometerVisibilityWind DirectionWind SpeedGust SpeedPrecipitationEventsConditions
1:00 AM77.0 °F71.6 °F83 %29.83 in6.2 miEast (100°)9.2 mphMostly Cloudy
2:00 AM77.0 °F75.2 °F94 %29.83 in6.2 miEast (100°)9.2 mphMostly Cloudy
3:00 AM75.0 °F74.0 °F94 %29.83 in5.0 miEast (100°)11.5 mphRainLight Rain
3:00 AM75.2 °F73.4 °F94 %29.83 inEast (100°)11.5 mphRainLight Rain
4:00 AM75.2 °F73.4 °F94 %29.83 inEast (100°)11.5 mphRainLight Rain
5:00 AM75.2 °F73.4 °F94 %29.83 inEast (100°)11.5 mphRainLight Rain
6:00 AM77.0 °F75.2 °F94 %29.83 in5.0 miEast (100°)6.9 mphMostly Cloudy
7:00 AM77.0 °F75.2 °F94 %29.83 in6.2 miEast (100°)9.2 mphRainLight Rain
8:00 AM0.0 °F0.0 °F29.83 in6.2 miEast (100°)9.2 mphMostly Cloudy
9:00 AM81.0 °F78.0 °F88 %29.84 in16.0 miEast (100°)9.2 mphPartly Cloudy
9:00 AM80.6 °F78.8 °F94 %29.83 in6.2 miEast (100°)9.2 mphMostly Cloudy
10:00 AM82.4 °F78.8 °F89 %29.83 in6.2 miEast (100°)11.5 mphMostly Cloudy
11:00 AM82.4 °F77.0 °F84 %29.83 in6.2 miEast (100°)11.5 mphScattered Clouds
12:00 PM84.2 °F77.0 °F79 %29.83 in6.2 miEast (100°)11.5 mphScattered Clouds
1:00 PM84.2 °F77.0 °F79 %29.80 in6.2 miEast (80°)13.8 mphScattered Clouds
2:00 PM86.0 °F75.2 °F70 %29.80 in6.2 miEast (80°)18.4 mphScattered Clouds
3:00 PM86.0 °F77.0 °F67 %29.80 in19.0 miEast (80°)13.8 mphMostly Cloudy
3:00 PM86.0 °F77.0 °F74 %29.80 in6.2 miEast (80°)13.8 mphScattered Clouds
4:00 PM84.2 °F75.2 °F74 %29.80 in6.2 miEast (80°)11.5 mphScattered Clouds
5:00 PM82.4 °F77.0 °F84 %29.80 in6.2 miEast (80°)11.5 mphScattered Clouds
6:00 PM78.8 °F75.2 °F89 %29.80 in6.2 miEast (80°)4.6 mphRainLight Rain
7:00 PM77.0 °F75.2 °F94 %29.80 in6.2 miEast (80°)11.5 mphMostly Cloudy
8:00 PM77.0 °F75.2 °F94 %29.83 in6.2 miEast (80°)11.5 mphMostly Cloudy
9:00 PM80.0 °F77.0 °F86 %29.83 in6.0 miEast (100°)9.2 mphRainLight Rain
9:00 PM80.6 °F77.0 °F89 %29.83 in6.2 miEast (100°)11.5 mphMostly Cloudy
10:00 PM80.6 °F77.0 °F89 %29.83 in6.2 miEast (100°)11.5 mphMostly Cloudy
11:00 PM78.8 °F77.0 °F94 %29.83 in6.2 miEast (100°)11.5 mphMostly Cloudy
Hourly data recorded from FMSD, located miles away from Tolanaro, Madagascar







STORIES FROM OUR PARTNERS